Location: Delettes
(50.6178°N, 2.2123°E)
Time: 10:21:31
(UTC+00:00)

SKYMED 2 - Pass Details

Date: 27 February 2020
Orbit: 621 x 623 km, 97.9° (Epoch: 29 March)

Event Time Altitude Azimuth Distance (km) Brightness Sun altitude
Rises 17:55:03 0° 16° (NNE) 2,917 6.8 -5.0°
Reaches altitude 10° 17:57:16 10° 19° (NNE) 2,005 5.9 -5.4°
Maximum altitude 18:01:37 67° 102° (ESE) 680 3.6 -6.1°
Drops below altitude 10° 18:05:55 10° 185° (S) 1,988 6.3 -6.8°
Sets 18:08:06 0° 188° (S) 2,889 7.2 -7.1°
